Location: Newark
(30.0333°N, 31.2167°E)
Time: 07:24:10
(UTC+00:00)

Tiros 1 - Pass Details

Date: 30 January 2020
Orbit: 631 x 664 km, 48.4° (Epoch: 20 February)

Event Time Altitude Azimuth Distance (km) Brightness Sun altitude
Rises 08:01:33 0° 238° (WSW) 2,906 10.5 33.3°
Reaches altitude 10° 08:03:54 10° 243° (WSW) 2,004 9.7 33.6°
Maximum altitude 08:08:26 56° 321° (NW) 756 7.6 34.2°
Drops below altitude 10° 08:13:01 10° 40° (NE) 2,027 9.7 34.7°
Sets 08:15:24 0° 45° (NE) 2,944 10.4 35.0°
